Weather History for Middlesboro, KY

Change the Weather History Date:

Sunday, December 9, 2012

  Actual Average (KLOZ) Record (KLOZ)
Temperature  
Mean Temperature 62 °F 40 °F  
Max Temperature 69 °F 49 °F 68 °F (2007)
Min Temperature 55 °F 31 °F 10 °F (1976)
Degree Days  
Heating Degree Days 3 25  
Month to date heating degree days 216  
Since 1 July heating degree days 1046  
Cooling Degree Days 0 0  
Month to date cooling degree days 0  
Year to date cooling degree days 1190  
Growing Degree Days 12 (Base 50)    
Moisture  
Dew Point 59 °F    
Average Humidity 86    
Maximum Humidity 100    
Minimum Humidity 68    
Precipitation  
Precipitation 0.01 in 0.16 in 1.81 in (1961)
Month to date precipitation 1.31  
Year to date precipitation 44.21  
Sea Level Pressure  
Sea Level Pressure 29.97 in    
Wind  
Wind Speed 4 mph (SSW)    
Max Wind Speed 14 mph    
Max Gust Speed 22 mph    
Visibility 10 miles    
Events Rain    
T = Trace of Precipitation, MM = Missing Value Source: NWS Daily Summary

Daily Weather History Graph

Daily Weather History Graph

Search for Another Location

Airport:

Trip Planner

Search our weather history database for the weather conditions in past years. The results will help you decide how hot, cold, wet, or windy it might be!

Date:

Astronomy

Dec. 09, 2012 Rise Set
Actual Time 6:35 AM CST 4:19 PM CST
Civil Twilight 6:07 AM CST 4:47 PM CST
Nautical Twilight 5:34 AM CST 5:20 PM CST
Astronomical Twilight 5:03 AM CST 5:51 PM CST
Moon 2:12 AM CST (12/9) 1:21 PM CST (12/9)
Length of Visible Light 10h 40m
Length of Day
9h 43m
Waning Crescent, 18% of the Moon is Illuminated
Dec 9
Waning Crescent
Dec 13
New
Dec 19
First Quarter
Dec 28
Full
Jan 4
Last Quarter

Hourly Weather History & Observations

Time (CST) Temp. Dew Point Humidity Pressure Visibility Wind Dir Wind Speed Gust Speed Precip Events Conditions
12:15 AM 59.0 °F 57.2 °F 94% 30.00 in 10.0 mi Calm Calm - N/A   Mostly Cloudy
12:35 AM 55.4 °F 55.4 °F 100% 30.00 in 10.0 mi Calm Calm - N/A   Mostly Cloudy
12:55 AM 55.4 °F 55.4 °F 100% 30.00 in 10.0 mi Calm Calm - N/A   Overcast
1:15 AM 55.4 °F 55.4 °F 100% 30.01 in 10.0 mi Calm Calm - N/A   Overcast
1:35 AM 57.2 °F 55.4 °F 94% 30.01 in 10.0 mi Calm Calm - N/A   Overcast
1:55 AM 55.4 °F 55.4 °F 100% 30.02 in 10.0 mi Calm Calm - N/A   Overcast
2:15 AM 55.4 °F 55.4 °F 100% 30.01 in 10.0 mi Calm Calm - N/A   Overcast
2:35 AM 57.2 °F 55.4 °F 94% 30.01 in 7.0 mi Calm Calm - N/A Rain Light Rain
2:55 AM 57.2 °F 55.4 °F 94% 30.00 in 7.0 mi NW 4.6 mph - N/A   Overcast
3:15 AM 57.2 °F 55.4 °F 94% 30.00 in 7.0 mi Calm Calm - N/A   Mostly Cloudy
3:35 AM 55.4 °F 55.4 °F 100% 30.00 in 4.0 mi Calm Calm - N/A   Overcast
3:55 AM 57.2 °F 55.4 °F 94% 30.00 in 7.0 mi Calm Calm - N/A   Overcast
4:15 AM 57.2 °F 57.2 °F 100% 30.01 in 7.0 mi SSW 8.1 mph - N/A   Overcast
4:35 AM 62.6 °F 60.8 °F 94% 30.01 in 10.0 mi Calm Calm - N/A   Overcast
4:55 AM 62.6 °F 60.8 °F 94% 30.02 in 10.0 mi SSW 5.8 mph - N/A   Overcast
5:15 AM 62.6 °F 60.8 °F 94% 30.01 in 10.0 mi SSW 3.5 mph - N/A   Overcast
5:35 AM 62.6 °F 60.8 °F 94% 30.02 in 10.0 mi SSW 4.6 mph - N/A   Overcast
5:55 AM 62.6 °F 60.8 °F 94% 30.02 in 10.0 mi South 6.9 mph - N/A   Overcast
6:15 AM 62.6 °F 60.8 °F 94% 30.02 in 10.0 mi SSW 8.1 mph 16.1 mph N/A   Overcast
6:35 AM 62.6 °F 60.8 °F 94% 30.02 in 10.0 mi SSW 5.8 mph - N/A   Mostly Cloudy
6:55 AM 62.6 °F 60.8 °F 94% 30.02 in 10.0 mi SW 10.4 mph 18.4 mph N/A   Mostly Cloudy
7:15 AM 62.6 °F 60.8 °F 94% 30.02 in 10.0 mi SW 9.2 mph 16.1 mph N/A   Overcast
7:35 AM 64.4 °F 60.8 °F 88% 30.02 in 10.0 mi SSW 5.8 mph - N/A   Mostly Cloudy
7:55 AM 64.4 °F 60.8 °F 88% 30.02 in 10.0 mi SSW 3.5 mph - N/A   Mostly Cloudy
8:15 AM 64.4 °F 60.8 °F 88% 30.02 in 10.0 mi South 9.2 mph - N/A   Scattered Clouds
8:35 AM 64.4 °F 60.8 °F 88% 30.02 in 10.0 mi South 10.4 mph - N/A   Scattered Clouds
8:55 AM 64.4 °F 60.8 °F 88% 30.02 in 10.0 mi SSW 8.1 mph 18.4 mph N/A   Mostly Cloudy
9:15 AM 64.4 °F 59.0 °F 83% 30.02 in 10.0 mi South 9.2 mph 16.1 mph N/A   Overcast
9:35 AM 64.4 °F 59.0 °F 83% 30.02 in 10.0 mi SSW 6.9 mph - N/A   Overcast
9:55 AM 64.4 °F 59.0 °F 83% 30.02 in 10.0 mi SSW 8.1 mph - N/A   Overcast
10:15 AM 66.2 °F 59.0 °F 78% 30.01 in 10.0 mi South 5.8 mph - N/A   Overcast
10:35 AM 66.2 °F 59.0 °F 78% 30.00 in 10.0 mi SSW 4.6 mph - N/A   Overcast
10:55 AM 68.0 °F 59.0 °F 73% 29.99 in 10.0 mi South 8.1 mph - N/A   Overcast
11:15 AM 69.8 °F 59.0 °F 68% 29.98 in 10.0 mi South 11.5 mph 16.1 mph N/A   Mostly Cloudy
11:35 AM 69.8 °F 59.0 °F 68% 29.97 in 10.0 mi South 12.7 mph 19.6 mph N/A   Overcast
11:55 AM 68.0 °F 59.0 °F 73% 29.97 in 10.0 mi SW 9.2 mph 16.1 mph N/A   Overcast
12:15 PM 66.2 °F 59.0 °F 78% 29.96 in 10.0 mi SSW 8.1 mph 17.3 mph N/A   Overcast
12:35 PM 66.2 °F 59.0 °F 78% 29.96 in 10.0 mi SSW 6.9 mph - N/A   Overcast
12:55 PM 66.2 °F 59.0 °F 78% 29.96 in 10.0 mi SW 5.8 mph - N/A   Overcast
1:15 PM 66.2 °F 60.8 °F 83% 29.96 in 5.0 mi SW 6.9 mph - 0.01 in Rain Rain
1:35 PM 64.4 °F 60.8 °F 88% 29.96 in 7.0 mi Calm Calm - 0.01 in Rain Light Rain
1:55 PM 64.4 °F 60.8 °F 88% 29.96 in 4.0 mi Calm Calm - N/A Rain Heavy Rain
2:15 PM 64.4 °F 62.6 °F 94% 29.96 in 7.0 mi South 4.6 mph - N/A Rain Rain
2:35 PM 64.4 °F 60.8 °F 88% 29.96 in 10.0 mi Calm Calm - N/A   Mostly Cloudy
2:55 PM 66.2 °F 60.8 °F 83% 29.95 in 10.0 mi South 5.8 mph - N/A   Overcast
3:15 PM 64.4 °F 60.8 °F 88% 29.96 in 10.0 mi SSW 6.9 mph - N/A   Light Drizzle
3:35 PM 64.4 °F 60.8 °F 88% 29.95 in 10.0 mi South 8.1 mph 21.9 mph N/A   Overcast
3:55 PM 64.4 °F 60.8 °F 88% 29.95 in 10.0 mi South 5.8 mph - N/A   Overcast
4:15 PM 64.4 °F 60.8 °F 88% 29.95 in 10.0 mi South 9.2 mph - N/A   Overcast
4:35 PM 64.4 °F 60.8 °F 88% 29.95 in 10.0 mi South 8.1 mph - N/A   Mostly Cloudy
4:55 PM 64.4 °F 60.8 °F 88% 29.95 in 10.0 mi South 4.6 mph - N/A   Scattered Clouds
5:15 PM 64.4 °F 60.8 °F 88% 29.95 in 10.0 mi South 6.9 mph - N/A   Mostly Cloudy
5:35 PM 64.4 °F 60.8 °F 88% 29.94 in 10.0 mi South 4.6 mph - N/A   Mostly Cloudy
5:55 PM 64.4 °F 60.8 °F 88% 29.94 in 10.0 mi South 4.6 mph - N/A   Scattered Clouds
6:15 PM 64.4 °F 60.8 °F 88% 29.94 in 10.0 mi South 8.1 mph - N/A   Scattered Clouds
6:35 PM 64.4 °F 59.0 °F 83% 29.93 in 10.0 mi South 13.8 mph 18.4 mph N/A   Clear
6:55 PM 64.4 °F 59.0 °F 83% 29.92 in 10.0 mi South 9.2 mph - N/A   Clear
7:15 PM 64.4 °F 59.0 °F 83% 29.92 in 10.0 mi SSW 6.9 mph - N/A   Clear
7:35 PM 64.4 °F 57.2 °F 77% 29.91 in 10.0 mi South 9.2 mph 17.3 mph N/A   Clear
7:55 PM 64.4 °F 57.2 °F 77% 29.91 in 10.0 mi South 9.2 mph 18.4 mph N/A   Clear
8:15 PM 64.4 °F 57.2 °F 77% 29.90 in 10.0 mi South 9.2 mph - N/A   Clear
8:35 PM 64.4 °F 57.2 °F 77% 29.90 in 10.0 mi South 6.9 mph - N/A   Clear
8:55 PM 64.4 °F 57.2 °F 77% 29.89 in 10.0 mi South 11.5 mph 16.1 mph N/A   Clear
9:15 PM 64.4 °F 57.2 °F 77% 29.90 in 10.0 mi SSW 6.9 mph - N/A   Clear
9:35 PM 64.4 °F 57.2 °F 77% 29.89 in 10.0 mi South 13.8 mph 18.4 mph N/A   Clear
9:55 PM 64.4 °F 57.2 °F 77% 29.89 in 10.0 mi SSW 13.8 mph 19.6 mph N/A   Clear
10:15 PM 64.4 °F 57.2 °F 77% 29.88 in 10.0 mi South 13.8 mph 20.7 mph N/A   Clear
10:35 PM 64.4 °F 57.2 °F 77% 29.88 in 10.0 mi South 9.2 mph 18.4 mph N/A   Clear
10:55 PM 64.4 °F 57.2 °F 77% 29.87 in 10.0 mi SSW 11.5 mph 20.7 mph N/A   Clear
11:15 PM 64.4 °F 57.2 °F 77% 29.87 in 10.0 mi South 8.1 mph - N/A   Clear
11:35 PM 64.4 °F 57.2 °F 77% 29.85 in 10.0 mi SSW 4.6 mph 18.4 mph N/A   Clear
11:55 PM 64.4 °F 57.2 °F 77% 29.83 in 10.0 mi SSW 8.1 mph 18.4 mph N/A   Clear